FW8972 Weather Reports


time (UTC)temp
F
wind
direction
speed
knots
gust
knots
rain 1hr
in
rain 24hr
in
rain mn
in
humidity
%
barometer
mb
20260503200046 71 41 3.5 7.0 0.00 0.00 0.00 33 1013.9
20260503195531 71 25 0.9 5.2 0.00 0.00 0.00 35 1014.1
20260503195031 72 351 0.9 5.2 0.00 0.00 0.00 35 1014.2
20260503194530 71 319 1.7 5.2 0.00 0.00 0.00 37 1014.2
20260503194030 72 34 2.6 5.2 0.00 0.00 0.00 33 1014.2
20260503193528 72 17 1.7 5.2 0.00 0.00 0.00 35 1014.3
20260503193033 72 346 1.7 5.2 0.00 0.00 0.00 35 1014.3
20260503192526 71 30 1.7 4.3 0.00 0.00 0.00 33 1014.3
20260503192026 71 9 0.0 4.3 0.00 0.00 0.00 36 1014.4
20260503191523 71 5 1.7 3.5 0.00 0.00 0.00 36 1014.4
20260503191022 70 100 0.9 4.3 0.00 0.00 0.00 37 1014.4
20260503190521 70 61 0.9 4.3 0.00 0.00 0.00 38 1014.4
20260503190021 68 18 1.7 4.3 0.00 0.00 0.00 39 1014.5
20260503185519 68 254 0.0 3.5 0.00 0.00 0.00 39 1014.6
20260503185024 67 84 1.7 3.5 0.00 0.00 0.00 39 1014.6
20260503184516 67 65 1.7 4.3 0.00 0.00 0.00 40 1014.7
20260503184015 68 77 1.7 4.3 0.00 0.00 0.00 39 1014.8
20260503183514 69 51 1.7 4.3 0.00 0.00 0.00 37 1014.7
20260503183014 70 44 1.7 4.3 0.00 0.00 0.00 37 1014.8
20260503182512 69 32 1.7 5.2 0.00 0.00 0.00 37 1014.7
20260503182015 70 296 1.7 5.2 0.00 0.00 0.00 37 1014.9
20260503181510 69 355 0.9 5.2 0.00 0.00 0.00 38 1014.8
20260503181010 69 63 2.6 4.3 0.00 0.00 0.00 38 1014.8
20260503180509 68 55 1.7 5.2 0.00 0.00 0.00 39 1014.7
20260503180008 68 71 1.7 5.2 0.00 0.00 0.00 39 1014.8
20260503175506 68 34 1.7 4.3 0.00 0.00 0.00 41 1014.9
20260503175105 68 331 1.7 4.3 0.00 0.00 0.00 40 1014.9
20260503174503 69 5 1.7 4.3 0.00 0.00 0.00 38 1014.8
20260503174002 70 67 0.9 3.5 0.00 0.00 0.00 37 1014.8
20260503173502 70 25 0.9 3.5 0.00 0.00 0.00 38 1014.8
20260503173111 69 16 0.9 3.5 0.00 0.00 0.00 36 1014.9
20260503172558 69 243 0.9 3.5 0.00 0.00 0.00 36 1014.9
20260503172057 69 284 0.9 3.5 0.00 0.00 0.00 37 1015.1
20260503171555 68 15 0.9 4.3 0.00 0.00 0.00 38 1015.1
20260503171054 67 239 0.9 4.3 0.00 0.00 0.00 39 1015.1
20260503170553 66 332 0.9 2.6 0.00 0.00 0.00 41 1015.2
20260503150625 60 259 0.0 2.6 0.00 0.00 0.00 48 1015.6
20260503131100 52 268 0.0 4.3 0.00 0.00 0.00 56 1015.7
20260503130603 52 284 0.0 5.2 0.00 0.00 0.00 56 1015.6
20260503130106 52 286 0.0 1.7 0.00 0.00 0.00 56 1015.6
20260503110543 56 313 0.0 1.7 0.00 0.00 0.00 49 1015.7
20260503090133 56 44 1.7 4.3 0.00 0.00 0.00 49 1015.6
20260503081537 58 309 0.0 0.0 0.00 0.00 0.00 45 1015.4
20260503081025 58 309 0.0 0.0 0.00 0.00 0.00 45 1015.4
20260503080525 58 309 0.0 0.0 0.00 0.00 0.00 45 1015.4
20260503072521 59 323 0.0 0.9 0.00 0.00 0.00 47 1015.3
20260503072021 59 323 0.0 0.9 0.00 0.00 0.00 47 1015.4
20260503071520 59 323 0.0 1.7 0.00 0.00 0.00 47 1015.4
20260503071019 58 323 0.0 1.7 0.00 0.00 0.00 48 1015.4
20260503070518 58 327 0.0 3.5 0.00 0.00 0.00 48 1015.4
20260503055015 61 317 0.0 0.0 0.00 0.00 0.00 44 1015.2
20260503054517 62 317 0.0 0.9 0.00 0.00 0.00 42 1015.2
20260503054014 62 317 0.0 0.9 0.00 0.00 0.00 41 1015.2
20260503053514 62 317 0.0 0.9 0.00 0.00 0.00 40 1015.2
20260503053018 63 317 0.0 0.9 0.00 0.00 0.00 40 1015.2
20260503052514 63 317 0.0 0.0 0.00 0.00 0.00 40 1015.1
20260503052014 63 317 0.0 0.0 0.00 0.00 0.00 39 1015.3
20260503051530 63 317 0.0 0.9 0.00 0.00 0.00 39 1015.2
20260503051013 64 317 0.0 0.9 0.00 0.00 0.00 39 1015.0
20260503050513 64 317 0.0 0.0 0.00 0.00 0.00 38 1015.2
20260503050014 64 317 0.0 0.9 0.00 0.00 0.00 38 1015.1
20260503045514 65 317 0.0 0.9 0.00 0.00 0.00 38 1015.0
20260503045012 66 317 0.0 0.0 0.00 0.00 0.00 37 1015.0
20260503044511 66 317 0.0 0.0 0.00 0.00 0.00 37 1015.1
20260503044009 67 317 0.0 0.0 0.00 0.00 0.00 36 1015.2
20260503043509 67 317 0.0 0.0 0.00 0.00 0.00 36 1015.1
20260503043008 67 317 0.0 1.7 0.00 0.00 0.00 36 1015.1
20260503042507 67 327 0.0 2.6 0.00 0.00 0.00 36 1015.0
20260503042006 68 309 0.0 2.6 0.00 0.00 0.00 35 1015.1
20260503041506 68 318 0.0 3.5 0.00 0.00 0.00 35 1015.1
20260503041010 68 11 0.9 3.5 0.00 0.00 0.00 35 1015.0
20260503040506 68 355 0.0 4.3 0.00 0.00 0.00 35 1014.9
20260503040006 68 338 0.9 5.2 0.00 0.00 0.00 34 1014.9
20260503035506 68 338 0.0 2.6 0.00 0.00 0.00 34 1014.9
20260503035006 68 344 0.0 2.6 0.00 0.00 0.00 34 1014.8
20260503034505 69 339 0.0 2.6 0.00 0.00 0.00 33 1014.8
20260503034005 69 300 0.0 1.7 0.00 0.00 0.00 32 1014.7
20260503033507 69 300 0.0 1.7 0.00 0.00 0.00 31 1014.6
20260503033010 70 300 0.0 1.7 0.00 0.00 0.00 33 1014.7
20260503032506 70 297 0.0 1.7 0.00 0.00 0.00 31 1014.6
20260503032004 71 333 0.0 1.7 0.00 0.00 0.00 31 1014.7
20260503031504 71 349 0.0 2.6 0.00 0.00 0.00 31 1014.6
20260503031004 71 316 0.0 2.6 0.00 0.00 0.00 30 1014.6
20260503030507 72 299 0.0 3.5 0.00 0.00 0.00 29 1014.5
20260503030007 72 346 0.0 3.5 0.00 0.00 0.00 28 1014.6
20260503025503 72 313 0.9 3.5 0.00 0.00 0.00 28 1014.6
20260503025003 72 309 0.0 2.6 0.00 0.00 0.00 27 1014.5
20260503024502 73 290 0.0 5.2 0.00 0.00 0.00 27 1014.5
20260503024002 73 314 0.0 5.2 0.00 0.00 0.00 27 1014.5
20260503023502 73 355 0.0 4.3 0.00 0.00 0.00 26 1014.5
20260503023002 73 289 0.0 4.3 0.00 0.00 0.00 27 1014.6
20260503022502 74 314 0.0 3.5 0.00 0.00 0.00 26 1014.5
20260503022001 74 327 0.0 3.5 0.00 0.00 0.00 26 1014.6
20260503021501 74 301 0.0 3.5 0.00 0.00 0.00 25 1014.6
20260503021100 74 341 0.9 7.8 0.00 0.00 0.00 26 1014.6
20260503020600 74 345 0.0 7.8 0.00 0.00 0.00 26 1014.6
20260503020100 74 325 0.0 4.3 0.00 0.00 0.00 26 1014.5
20260503015558 74 14 0.9 5.2 0.00 0.00 0.00 25 1014.6
20260503015058 74 15 0.9 5.2 0.00 0.00 0.00 25 1014.7
20260503014605 74 34 0.0 3.5 0.00 0.00 0.00 26 1014.7
20260503014058 75 310 0.0 3.5 0.00 0.00 0.00 25 1014.7
20260503013557 75 338 0.9 3.5 0.00 0.00 0.00 25 1014.6
20260503013056 75 308 0.0 3.5 0.00 0.00 0.00 25 1014.7
20260503012555 75 355 0.9 3.5 0.00 0.00 0.00 25 1014.7
20260503012055 76 309 0.9 4.3 0.00 0.00 0.00 24 1014.7
20260503011559 76 350 1.7 4.3 0.00 0.00 0.00 24 1014.7
20260503011054 76 34 0.9 4.3 0.00 0.00 0.00 24 1014.8
20260503010553 76 15 0.0 4.3 0.00 0.00 0.00 25 1014.8
20260503010106 76 355 1.7 7.0 0.00 0.00 0.00 24 1014.8
20260503005557 76 5 1.7 7.0 0.00 0.00 0.00 24 1014.8
20260503005053 77 9 0.9 4.3 0.00 0.00 0.00 25 1014.9
20260503004551 77 325 0.9 3.5 0.00 0.00 0.00 24 1014.9
20260503004051 77 12 0.0 2.6 0.00 0.00 0.00 26 1014.9
20260503003549 76 301 0.0 3.5 0.00 0.00 0.00 26 1015.0
20260503003058 76 355 0.9 3.5 0.00 0.00 0.00 26 1014.9
20260503002548 76 327 0.9 4.3 0.00 0.00 0.00 26 1015.0
20260503002048 76 15 1.7 4.3 0.00 0.00 0.00 27 1015.0
20260503001548 75 337 1.7 7.8 0.00 0.00 0.00 27 1015.1
20260503001051 75 355 0.9 7.8 0.00 0.00 0.00 28 1015.2
20260503000546 76 90 0.9 5.2 0.00 0.00 0.00 28 1015.4
20260503000052 75 13 1.7 5.2 0.00 0.00 0.00 28 1015.3
20260502235548 75 5 1.7 4.3 0.00 0.00 0.00 29 1015.4
20260502235045 75 19 0.9 7.8 0.00 0.00 0.00 30 1015.5
20260502234544 74 324 1.7 7.8 0.00 0.00 0.00 29 1015.5
20260502234046 74 23 0.9 7.0 0.00 0.00 0.00 30 1015.6
20260502233545 74 15 1.7 7.0 0.00 0.00 0.00 30 1015.5
20260502233043 75 355 1.7 7.0 0.00 0.00 0.00 29 1015.6
20260502232544 75 31 1.7 5.2 0.00 0.00 0.00 30 1015.7
20260502232044 76 29 1.7 4.3 0.00 0.00 0.00 29 1015.7
20260502231542 76 41 0.9 7.8 0.00 0.00 0.00 30 1015.7
20260502231042 76 351 0.9 7.8 0.00 0.00 0.00 28 1015.9
20260502230544 76 315 1.7 7.8 0.00 0.00 0.00 28 1016.0
20260502230038 76 107 0.9 8.7 0.00 0.00 0.00 28 1016.1
20260502225537 75 315 1.7 8.7 0.00 0.00 0.00 28 1016.1
20260502225036 76 301 1.7 7.8 0.00 0.00 0.00 29 1016.1
20260502224535 75 17 1.7 7.8 0.00 0.00 0.00 29 1016.2
20260502224034 75 261 0.9 5.2 0.00 0.00 0.00 28 1016.3
20260502223536 75 15 1.7 5.2 0.00 0.00 0.00 28 1016.4
20260502223034 75 5 0.9 7.0 0.00 0.00 0.00 30 1016.4
20260502222530 74 19 0.9 7.0 0.00 0.00 0.00 30 1016.5
20260502222029 74 240 1.7 5.2 0.00 0.00 0.00 29 1016.6
20260502221528 73 292 0.9 5.2 0.00 0.00 0.00 31 1016.6
20260502221028 73 20 2.6 5.2 0.00 0.00 0.00 30 1016.8
20260502220527 73 21 1.7 5.2 0.00 0.00 0.00 32 1016.7
20260502220027 73 18 1.7 5.2 0.00 0.00 0.00 33 1016.7
20260502215528 73 91 0.9 5.2 0.00 0.00 0.00 34 1016.7
20260502215024 73 5 0.9 7.8 0.00 0.00 0.00 35 1016.8
20260502214523 72 350 2.6 7.8 0.00 0.00 0.00 35 1016.8
20260502214023 72 355 1.7 7.0 0.00 0.00 0.00 37 1016.8
20260502213520 72 317 0.9 5.2 0.00 0.00 0.00 37 1017.1
20260502213035 71 15 1.7 5.2 0.00 0.00 0.00 37 1017.1
20260502212519 71 323 1.7 5.2 0.00 0.00 0.00 37 1017.2
20260502212018 70 319 0.9 4.3 0.00 0.00 0.00 38 1017.1
20260502211517 70 11 2.6 4.3 0.00 0.00 0.00 38 1017.3
20260502211016 70 36 1.7 4.3 0.00 0.00 0.00 39 1017.2
20260502210517 69 5 1.7 5.2 0.00 0.00 0.00 39 1017.2
20260502210015 69 312 1.7 7.8 0.00 0.00 0.00 41 1017.3
20260502205615 69 5 0.9 7.8 0.00 0.00 0.00 40 1017.3
20260502205015 69 343 2.6 5.2 0.00 0.00 0.00 40 1017.4
20260502204513 68 10 2.6 4.3 0.00 0.00 0.00 42 1017.4
20260502204011 67 11 1.7 5.2 0.00 0.00 0.00 43 1017.5
20260502203512 67 46 1.7 7.0 0.00 0.00 0.00 43 1017.5
20260502203012 67 49 1.7 5.2 0.00 0.00 0.00 44 1017.5
20260502202511 67 69 1.7 5.2 0.00 0.00 0.00 45 1017.7
20260502202011 67 338 1.7 5.2 0.00 0.00 0.00 44 1017.6
20260502201522 67 55 1.7 7.0 0.00 0.00 0.00 45 1017.6
20260502201010 67 65 1.7 5.2 0.00 0.00 0.00 45 1017.8
20260502200512 67 360 0.9 4.3 0.00 0.00 0.00 45 1017.7